| time (UTC) | temp F | wind direction | speed knots | gust knots | rain 1hr in | rain 24hr in | rain mn in | humidity % | barometer mb |
| 20260503231559 | 61 | 43 | 0.0 | 0.0 | 0.00 | 0.00 | 0.00 | 28 | 1013.2 |
| 20260503224557 | 62 | 43 | 0.0 | 0.9 | 0.00 | 0.00 | 0.00 | 26 | 1013.2 |
| 20260503223056 | 62 | 42 | 0.0 | 5.2 | 0.00 | 0.00 | 0.00 | 25 | 1013.4 |
| 20260503221559 | 62 | 13 | 0.0 | 1.7 | 0.00 | 0.00 | 0.00 | 25 | 1013.2 |
| 20260503220055 | 62 | 52 | 0.0 | 6.1 | 0.00 | 0.00 | 0.00 | 24 | 1013.3 |
| 20260503214555 | 62 | 59 | 0.9 | 3.5 | 0.00 | 0.00 | 0.00 | 24 | 1013.3 |
| 20260503213054 | 62 | 57 | 0.0 | 5.2 | 0.00 | 0.00 | 0.00 | 24 | 1013.5 |
| 20260503211553 | 62 | 157 | 0.9 | 6.1 | 0.00 | 0.00 | 0.00 | 25 | 1013.2 |
| 20260503210053 | 62 | 73 | 0.0 | 2.6 | 0.00 | 0.00 | 0.00 | 24 | 1013.5 |
| 20260503204555 | 62 | 29 | 0.0 | 7.0 | 0.00 | 0.00 | 0.00 | 25 | 1013.4 |
| 20260503203051 | 61 | 69 | 0.0 | 5.2 | 0.00 | 0.00 | 0.00 | 26 | 1013.7 |
| 20260503201550 | 62 | 25 | 0.0 | 11.3 | 0.00 | 0.00 | 0.00 | 26 | 1013.7 |
| 20260503200049 | 61 | 322 | 0.0 | 3.5 | 0.00 | 0.00 | 0.00 | 26 | 1014.0 |
| 20260503194553 | 61 | 350 | 0.0 | 7.8 | 0.00 | 0.00 | 0.00 | 25 | 1014.3 |
| 20260503193050 | 61 | 76 | 0.0 | 2.6 | 0.00 | 0.00 | 0.00 | 25 | 1014.6 |
| 20260503191549 | 61 | 97 | 0.9 | 5.2 | 0.00 | 0.00 | 0.00 | 27 | 1014.8 |
| 20260503190045 | 60 | 28 | 1.7 | 10.4 | 0.00 | 0.00 | 0.00 | 26 | 1015.0 |
| 20260503184602 | 60 | 36 | 0.9 | 7.0 | 0.00 | 0.00 | 0.00 | 28 | 1015.3 |
| 20260503183049 | 60 | 196 | 0.9 | 4.3 | 0.00 | 0.00 | 0.00 | 26 | 1015.4 |
| 20260503181546 | 59 | 140 | 0.9 | 7.8 | 0.00 | 0.00 | 0.00 | 26 | 1015.5 |
| 20260503180041 | 59 | 43 | 0.9 | 5.2 | 0.00 | 0.00 | 0.00 | 25 | 1015.5 |
| 20260503174540 | 58 | 19 | 1.7 | 7.8 | 0.00 | 0.00 | 0.00 | 28 | 1015.6 |
| 20260503173039 | 58 | 43 | 0.9 | 3.5 | 0.00 | 0.00 | 0.00 | 26 | 1015.6 |
| 20260503171602 | 57 | 355 | 0.9 | 7.0 | 0.00 | 0.00 | 0.00 | 28 | 1015.8 |
| 20260503081525 | 45 | 336 | 0.0 | 0.9 | 0.00 | 0.00 | 0.00 | 55 | 1014.0 |
| 20260503071515 | 46 | 333 | 0.9 | 3.5 | 0.00 | 0.00 | 0.00 | 51 | 1013.4 |
| 20260503054604 | 49 | 13 | 0.0 | 4.3 | 0.00 | 0.00 | 0.00 | 48 | 1012.9 |
| 20260503053058 | 49 | 17 | 0.0 | 4.3 | 0.00 | 0.00 | 0.00 | 47 | 1013.0 |
| 20260503051556 | 50 | 16 | 0.0 | 3.5 | 0.00 | 0.00 | 0.00 | 46 | 1012.9 |
| 20260503050053 | 50 | 14 | 1.7 | 4.3 | 0.00 | 0.00 | 0.00 | 45 | 1013.0 |
| 20260503044555 | 51 | 355 | 0.0 | 7.0 | 0.00 | 0.00 | 0.00 | 45 | 1013.0 |
| 20260503043052 | 51 | 355 | 0.9 | 7.0 | 0.00 | 0.00 | 0.00 | 44 | 1012.9 |
| 20260503041551 | 52 | 315 | 0.0 | 8.7 | 0.00 | 0.00 | 0.00 | 45 | 1012.8 |
| 20260503040049 | 52 | 336 | 0.0 | 7.0 | 0.00 | 0.00 | 0.00 | 44 | 1012.7 |
| 20260503034550 | 52 | 15 | 0.9 | 7.0 | 0.00 | 0.00 | 0.00 | 43 | 1012.8 |
| 20260503033049 | 53 | 29 | 0.0 | 3.5 | 0.00 | 0.00 | 0.00 | 43 | 1012.4 |
| 20260503031550 | 53 | 334 | 0.0 | 7.0 | 0.00 | 0.00 | 0.00 | 43 | 1012.1 |
| 20260503030049 | 53 | 10 | 0.0 | 4.3 | 0.00 | 0.00 | 0.00 | 43 | 1012.2 |
| 20260503024547 | 53 | 42 | 0.9 | 4.3 | 0.00 | 0.00 | 0.00 | 43 | 1012.2 |
| 20260503023050 | 54 | 54 | 0.0 | 2.6 | 0.00 | 0.00 | 0.00 | 43 | 1012.3 |
| 20260503021554 | 54 | 57 | 0.9 | 3.5 | 0.00 | 0.00 | 0.00 | 42 | 1012.3 |
| 20260503020050 | 54 | 55 | 0.0 | 0.9 | 0.00 | 0.00 | 0.00 | 42 | 1012.2 |
| 20260503014544 | 55 | 55 | 0.0 | 0.9 | 0.00 | 0.00 | 0.00 | 41 | 1012.1 |
| 20260503013044 | 55 | 55 | 0.0 | 0.0 | 0.00 | 0.00 | 0.00 | 41 | 1012.1 |
| 20260503011550 | 55 | 55 | 0.0 | 1.7 | 0.00 | 0.00 | 0.00 | 40 | 1012.0 |
| 20260503010043 | 55 | 55 | 0.0 | 0.9 | 0.00 | 0.00 | 0.00 | 39 | 1011.7 |
| 20260503004540 | 56 | 55 | 0.0 | 0.0 | 0.00 | 0.00 | 0.00 | 38 | 1011.4 |
| 20260503003040 | 56 | 55 | 0.0 | 1.7 | 0.00 | 0.00 | 0.00 | 38 | 1011.2 |
| 20260503001539 | 56 | 55 | 0.0 | 1.7 | 0.00 | 0.00 | 0.00 | 36 | 1011.0 |
| 20260503000055 | 57 | 56 | 0.0 | 2.6 | 0.00 | 0.00 | 0.00 | 36 | 1010.9 |
| 20260502234537 | 57 | 56 | 0.0 | 1.7 | 0.00 | 0.00 | 0.00 | 35 | 1010.7 |
| 20260502233036 | 57 | 61 | 0.0 | 3.5 | 0.00 | 0.00 | 0.00 | 34 | 1010.3 |